Home > Weather > Erding > Past weeks

Flag for Germany Past Weather in Erding, Bavaria, Germany — Yesterday and Last 2 Weeks

Now
72 °F

Sunny.


Feels Like: 72 °F
Forecast: 63 / 81 °F
Wind: 1 mph from North

Location: Munich / Franz Josef Strauss Airport

Current Time: Jun 24, 2016 at 10:28:42 PM

Latest Report: Jun 24, 2016 at 9:50 PM


Visibility: 10 mi

Pressure: 29.98 "Hg

Humidity: 78%

Dew Point: 64 °F

Location of ErdingLocation

Past Weather in Erding — Graph

°F

Erding Temperature Yesterday

Maximum temperature yesterday: 84 °F (at 2:20 PM)
Minimum temperature yesterday: 55 °F (at 4:20 AM)
Average temperature yesterday: 72 °F

High & Low Weather Summary for the Past Weeks

 TemperatureHumidityPressure
High88 °F (Jun 24, 4:50 PM)100% (Jun 10, 12:50 AM)30.30 "Hg (Jun 10, 12:50 AM)
Low46 °F (Jun 18, 5:20 AM)40% (Jun 10, 3:50 PM)29.56 "Hg (Jun 14, 3:50 PM)
Average62 °F80%29.95 "Hg
* Reported Jun 9 8:20 PM — Jun 24 8:50 PM, Erding, Weather by CustomWeather, © 2016

Note: Actual official high and low records may vary slightly from our data, if they occured in-between our weather recording intervals... More about our weather records

Advertising

Erding Weather History for the Previous 24 Hours

Scroll right to see more
 ConditionsComfort  
Time TempWeatherWind HumidityBarometerVisibility
8:50 PM
Fri, Jun 24
79 °FSunny.2 mph65%29.98 "Hg10 mi
8:20 PM82 °FSunny.3 mph55%29.98 "Hg10 mi
7:50 PM86 °FSunny.2 mph46%29.98 "Hg10 mi
7:20 PM86 °FPassing clouds.5 mph49%29.98 "HgN/A
6:50 PM86 °FSunny.5 mph49%30.01 "Hg10 mi
6:20 PM86 °FSunny.6 mph49%30.01 "Hg10 mi
5:50 PM86 °FPassing clouds.5 mph46%30.01 "HgN/A
5:20 PM86 °FPassing clouds.6 mph49%30.01 "HgN/A
4:50 PM88 °FPassing clouds.5 mph40%30.01 "HgN/A
4:20 PM86 °FSunny.2 mph46%30.04 "Hg10 mi
3:50 PM86 °FPassing clouds.5 mph43%30.04 "HgN/A
3:20 PM86 °FPassing clouds.2 mph46%30.04 "HgN/A
2:50 PM84 °FPassing clouds.5 mph55%30.07 "HgN/A
2:20 PM86 °FPassing clouds.5 mph55%30.07 "HgN/A
1:50 PM84 °FPassing clouds.2 mph51%30.07 "HgN/A
1:20 PM82 °FPassing clouds.2 mph58%30.07 "HgN/A
12:50 PM82 °FPassing clouds.3 mph66%30.07 "HgN/A
12:20 PM81 °FPassing clouds.3 mph66%30.09 "HgN/A
11:50 AM81 °FSunny.3 mph62%30.09 "Hg10 mi
11:20 AM79 °FSunny.2 mph65%30.09 "Hg10 mi
10:50 AM77 °FSunny.2 mph69%30.09 "Hg10 mi
10:20 AM75 °FSunny.2 mph74%30.09 "Hg10 mi
9:50 AM73 °FPassing clouds.3 mph78%30.09 "HgN/A
9:20 AM73 °FPassing clouds.3 mph74%30.09 "HgN/A
8:50 AM72 °FSunny.1 mph78%30.12 "Hg10 mi
8:20 AM72 °FSunny.3 mph73%30.09 "Hg10 mi
7:50 AM68 °FSunny.1 mph88%30.09 "Hg10 mi
7:20 AM64 °FClear.1 mph94%30.09 "Hg6 mi
6:50 AM63 °FClear.1 mph100%30.09 "Hg5 mi
6:20 AM59 °FFog.1 mph100%30.09 "Hg5 mi
5:50 AM55 °FLight fog.1 mph100%30.09 "HgN/A
5:20 AM55 °FLight fog.1 mph100%30.09 "HgN/A
4:50 AM55 °FFog.1 mph100%30.09 "HgN/A
4:20 AM57 °FFog.No wind100%30.09 "HgN/A
3:50 AM57 °FFog.No wind100%30.09 "HgN/A
3:20 AM57 °FClear.1 mph100%30.09 "Hg10 mi
2:50 AM59 °FClear.1 mph100%30.09 "Hg10 mi
2:20 AM59 °FClear.5 mph100%30.09 "Hg10 mi
1:50 AM61 °FClear.2 mph100%30.09 "Hg10 mi
1:20 AM61 °FClear.3 mph100%30.09 "Hg10 mi
12:50 AM61 °FClear.3 mph100%30.12 "Hg10 mi
12:20 AM63 °FClear.2 mph94%30.12 "Hg10 mi
11:50 PM
Thu, Jun 23
64 °FClear.2 mph88%30.12 "Hg10 mi
11:20 PM64 °FClear.1 mph94%30.12 "Hg10 mi
10:50 PM66 °FPassing clouds.7 mph83%30.12 "HgN/A
10:20 PM68 °FClear.3 mph83%30.12 "Hg10 mi
Weather by CustomWeather, © 2016

See weather overviewHow to use our weather pages